Emporia, KS

11:00 AM CST on December 16, 2017 (GMT -0600)
Emporia Municipal

Weather History for KEMP - September, 2013

Change the Weather History Date:

Sunday, September 22, 2013

  Actual Average Record
Temperature  
Mean Temperature 65 °F 66 °F  
Max Temperature 77 °F 78 °F 93 °F (2000)
Min Temperature 53 °F 54 °F 41 °F (1999)
Degree Days  
Heating Degree Days 0 2  
Month to date heating degree days 4 18  
Since 1 July heating degree days 6 19  
Cooling Degree Days 0 4  
Month to date cooling degree days 197 141  
Year to date cooling degree days 1326 1349  
Growing Degree Days 15 (Base 50)    
Moisture  
Dew Point 51 °F    
Average Humidity 65    
Maximum Humidity 93    
Minimum Humidity 36    
Precipitation  
Precipitation 0.00 in 0.09 in 0.97 in (1997)
Month to date precipitation 2.48 2.56  
Year to date precipitation 26.57 29.17  
Sea Level Pressure  
Sea Level Pressure 29.90 in    
Wind  
Wind Speed 10 mph (SSE)    
Max Wind Speed 18 mph    
Max Gust Speed 23 mph    
Visibility 10 miles    
Events      
T = Trace of Precipitation, MM = Missing Value Source: NWS Daily Summary

Daily Weather History Graph

Daily Weather History Graph

Search for Another Location

Airport or City:

Trip Planner

Search our weather history database for the weather conditions in past years. The results will help you decide how hot, cold, wet, or windy it might be!

Date:

Astronomy

Sep. 22, 2013 Rise Set
Actual Time 7:12 AM CDT 7:21 PM CDT
Civil Twilight 6:46 AM CDT 7:47 PM CDT
Nautical Twilight 6:15 AM CDT 8:18 PM CDT
Astronomical Twilight 5:44 AM CDT 8:49 PM CDT
Moon 9:15 PM CDT (9/22) 10:30 AM CDT (9/22)
Length of Visible Light 13h 01m
Length of Day
12h 08m
Waning Gibbous, 88% of the Moon is Illuminated
Sep 22
Waning Gibbous
Sep 26
Last Quarter
Oct 4
New
Oct 11
First Quarter
Oct 18
Full

Hourly Weather History & Observations

Time (CDT) Temp. Dew Point Humidity Pressure Visibility Wind Dir Wind Speed Gust Speed Precip Events Conditions
12:53 AM 57.9 °F 54.0 °F 87% 29.92 in 10.0 mi South 8.1 mph - N/A   Clear
1:53 AM 59.0 °F 53.1 °F 81% 29.92 in 10.0 mi South 9.2 mph - N/A   Clear
2:53 AM 57.9 °F 53.1 °F 84% 29.91 in 10.0 mi South 8.1 mph - N/A   Clear
3:53 AM 55.0 °F 53.1 °F 93% 29.91 in 10.0 mi South 8.1 mph - N/A   Clear
4:53 AM 54.0 °F 52.0 °F 93% 29.91 in 10.0 mi South 8.1 mph - N/A   Clear
5:53 AM 54.0 °F 52.0 °F 93% 29.92 in 10.0 mi South 8.1 mph - N/A   Clear
6:53 AM 53.1 °F 52.0 °F 96% 29.94 in 10.0 mi South 6.9 mph - N/A   Clear
7:53 AM 54.0 °F 52.0 °F 93% 29.96 in 10.0 mi SSE 9.2 mph - N/A   Clear
8:53 AM 59.0 °F 54.0 °F 83% 29.97 in 10.0 mi South 9.2 mph - N/A   Clear
9:53 AM 64.9 °F 53.1 °F 65% 29.97 in 10.0 mi South 15.0 mph 21.9 mph N/A   Clear
10:53 AM 68.0 °F 54.0 °F 61% 29.97 in 10.0 mi South 12.7 mph - N/A   Clear
11:53 AM 72.0 °F 53.1 °F 51% 29.95 in 10.0 mi South 15.0 mph - N/A   Clear
12:53 PM 73.9 °F 52.0 °F 46% 29.93 in 10.0 mi SSE 10.4 mph 21.9 mph N/A   Clear
1:53 PM 75.9 °F 51.1 °F 42% 29.91 in 10.0 mi SSE 12.7 mph - N/A   Clear
2:53 PM 75.9 °F 50.0 °F 40% 29.88 in 10.0 mi SSE 10.4 mph 21.9 mph N/A   Clear
3:53 PM 77.0 °F 51.1 °F 40% 29.87 in 10.0 mi SSE 13.8 mph 20.7 mph N/A   Clear
4:53 PM 75.9 °F 48.9 °F 38% 29.85 in 10.0 mi SE 11.5 mph - N/A   Clear
5:53 PM 75.0 °F 46.0 °F 36% 29.84 in 10.0 mi SE 12.7 mph - N/A   Clear
6:53 PM 70.0 °F 46.9 °F 44% 29.84 in 10.0 mi SSE 9.2 mph - N/A   Clear
7:53 PM 63.0 °F 48.9 °F 60% 29.85 in 10.0 mi SSE 8.1 mph - N/A   Clear
8:53 PM 61.0 °F 48.0 °F 62% 29.85 in 10.0 mi SSE 8.1 mph - N/A   Clear
9:53 PM 60.1 °F 48.0 °F 64% 29.85 in 10.0 mi SSE 11.5 mph - N/A   Clear
10:53 PM 59.0 °F 48.9 °F 69% 29.86 in 10.0 mi SSE 11.5 mph - N/A   Clear
11:53 PM 57.9 °F 48.9 °F 72% 29.85 in 10.0 mi SE 9.2 mph - N/A   Clear